Weather History for Managua, Nicaragua

Change the Weather History Date:

Thursday, January 2, 2014

  Actual Average Record
Temperature  
Mean Temperature 79 °F -  
Max Temperature 89 °F 88 °F 93 °F (2003)
Min Temperature 69 °F 68 °F 69 °F (2000)
Cooling Degree Days 14    
Growing Degree Days 29 (Base 50)    
Moisture  
Dew Point 67 °F    
Average Humidity 68    
Maximum Humidity 94    
Minimum Humidity 43    
Precipitation  
Precipitation 0.00 in - - ()
Sea Level Pressure  
Sea Level Pressure 29.82 in    
Wind  
Wind Speed 5 mph ()    
Max Wind Speed 18 mph    
Max Gust Speed -    
Visibility 6.2 miles    
Events      
Averages and records for this station are not official NWS values.
T = Trace of Precipitation, MM = Missing Value Source: Averaged Metar Reports

Daily Weather History Graph

Daily Weather History Graph

Search for Another Location

Airport:

Trip Planner

Search our weather history database for the weather conditions in past years. The results will help you decide how hot, cold, wet, or windy it might be!

Date:

Astronomy

Jan. 02, 2014 Rise Set
Actual Time 6:05 AM CST 5:31 PM CST
Civil Twilight 5:42 AM CST 5:54 PM CST
Nautical Twilight 5:16 AM CST 6:21 PM CST
Astronomical Twilight 4:50 AM CST 6:47 PM CST
Moon 7:04 AM CST (1/2) 7:05 PM CST (1/2)
Length of Visible Light 12h 11m
Length of Day
11h 26m
Waxing Crescent, 3% of the Moon is Illuminated
Jan 2
Waxing Crescent
Jan 7
First Quarter
Jan 15
Full
Jan 23
Last Quarter
Jan 30
New

Hourly Weather History & Observations

Time (CST) Temp. Heat Index Dew Point Humidity Pressure Visibility Wind Dir Wind Speed Gust Speed Precip Events Conditions
12:00 AM 73.4 °F - 68.0 °F 83% 29.86 in 6.2 mi ESE 4.6 mph - N/A   Partly Cloudy
1:00 AM 75.2 °F - 69.8 °F 83% 29.86 in 6.2 mi ESE 4.6 mph - N/A   Partly Cloudy
2:00 AM 73.4 °F - 68.0 °F 83% 29.83 in 6.2 mi Calm Calm - N/A   Partly Cloudy
3:00 AM 73.4 °F - 66.2 °F 78% 29.83 in 6.2 mi Calm Calm - N/A   Partly Cloudy
4:00 AM 71.6 °F - 68.0 °F 88% 29.83 in 6.2 mi Calm Calm - N/A   Partly Cloudy
5:00 AM 69.8 °F - 66.2 °F 88% 29.83 in 6.2 mi Calm Calm - N/A   Partly Cloudy
6:00 AM 69.8 °F - 68.0 °F 94% 29.83 in 6.2 mi Calm Calm - N/A   Partly Cloudy
7:00 AM 69.8 °F - 66.2 °F 88% 29.86 in 6.2 mi Calm Calm - N/A   Partly Cloudy
8:00 AM 77.0 °F - 69.8 °F 78% 29.89 in 6.2 mi ESE 4.6 mph - N/A   Partly Cloudy
9:00 AM 80.6 °F 83.2 °F 68.0 °F 65% 29.89 in 6.2 mi East 11.5 mph - N/A   Partly Cloudy
10:00 AM 84.2 °F 87.3 °F 68.0 °F 58% 29.89 in 6.2 mi East 9.2 mph - N/A   Partly Cloudy
11:00 AM 86.0 °F 89.4 °F 68.0 °F 55% 29.86 in 6.2 mi ENE 9.2 mph - N/A   Partly Cloudy
12:00 PM 87.8 °F 90.4 °F 66.2 °F 49% 29.83 in 6.2 mi East 11.5 mph - N/A   Partly Cloudy
1:00 PM 89.6 °F 93.4 °F 68.0 °F 49% 29.80 in 6.2 mi ESE 18.4 mph - N/A   Partly Cloudy
2:00 PM 89.6 °F 92.2 °F 66.2 °F 46% 29.77 in 6.2 mi East 13.8 mph - N/A   Partly Cloudy
3:00 PM 89.6 °F 92.2 °F 66.2 °F 46% 29.74 in 6.2 mi ENE 11.5 mph - N/A   Partly Cloudy
4:00 PM 89.6 °F 91.1 °F 64.4 °F 43% 29.74 in 6.2 mi East 9.2 mph - N/A   Partly Cloudy
5:00 PM 87.8 °F 89.4 °F 64.4 °F 46% 29.77 in 6.2 mi ENE 9.2 mph - N/A   Partly Cloudy
6:00 PM 84.2 °F 85.0 °F 62.6 °F 48% 29.77 in 6.2 mi ENE 6.9 mph - N/A   Partly Cloudy
7:00 PM 80.6 °F 82.7 °F 66.2 °F 61% 29.77 in 6.2 mi East 11.5 mph - N/A   Partly Cloudy
8:00 PM 77.0 °F - 66.2 °F 69% 29.80 in 6.2 mi Calm Calm - N/A   Partly Cloudy
9:00 PM 77.0 °F - 66.2 °F 69% 29.83 in 6.2 mi SSE 4.6 mph - N/A   Partly Cloudy
10:00 PM 75.2 °F - 68.0 °F 78% 29.86 in 6.2 mi Calm Calm - N/A   Scattered Clouds
11:00 PM 75.2 °F - 68.0 °F 78% 29.83 in 6.2 mi SE 4.6 mph - N/A   Scattered Clouds